Hourly Data Report for October 03, 2017

All times are specified in Local Standard Time (LST). Add 1 hour to adjust for Daylight Saving Time where and when it is observed.

HIGH LEVEL
ALBERTA

58°37'18.000" N
117°09'53.000" W
338.00 m
3073140
71066
YOJ

Download Data

Hourly Data (October 2017)
Hourly Data Report for October 3, 2017
Temp Definition
°C
Dew Point Temp Definition
°C
Rel Hum Definition
%
Wind Dir Definition
10's deg

Wind Spd Definition
km/h
Visibility Definition
km
Stn Press Definition
kPa
Hmdx Definition


Wind Chill Definition


Weather Definition


TIME
00:00 Legend Double Dagger -4.1 -7.5 78   0 16.1 98.35     LegendNANA
01:00 Legend Double Dagger -4.2 -6.7 83 16 8 16.1 98.28   -8 LegendNANA
02:00 Legend Double Dagger -3.8 -5.6 87 17 5 16.1 98.20   -6 LegendNANA
03:00 Legend Double Dagger -3.0 -5.3 84 18 8 16.1 98.11   -6 LegendNANA
04:00 Legend Double Dagger -2.0 -4.8 81   0 16.1 98.01     LegendNANA
05:00 Legend Double Dagger -4.1 -5.9 87 17 9 16.1 97.92   -8 LegendNANA
06:00 Legend Double Dagger -3.9 -5.6 88 16 13 16.1 97.81   -9 LegendNANA
07:00 Legend Double Dagger -3.0 -5.5 83 20 5 16.1 97.77   -5 LegendNANA
08:00 Legend Double Dagger -2.4 -4.7 84 17 9 16.1 97.66   -6 LegendNANA
09:00 Legend Double Dagger -0.1 -4.0 75 14 4 16.1 97.68   -1 LegendNANA
10:00 Legend Double Dagger 1.1 -3.8 70 LegendMM 8 16.1 97.67     LegendNANA
11:00 Legend Double Dagger 3.0 -3.4 63 18 5 16.1 97.57     LegendNANA
12:00 Legend Double Dagger 7.5 -3.2 47 LegendMM 8 16.1 97.49     LegendNANA
13:00 Legend Double Dagger 11.9 -2.8 36 18 5 16.1 97.48     LegendNANA
14:00 Legend Double Dagger 14.4 -2.0 32 LegendMM 9 16.1 97.52     LegendNANA
15:00 Legend Double Dagger 15.5 -1.3 32 33 13 16.1 97.57     LegendNANA
16:00 Legend Double Dagger 15.9 -1.1 31 32 11 16.1 97.62     LegendNANA
17:00 Legend Double Dagger 15.3 -0.8 33 30 5 16.1 97.67     LegendNANA
18:00 Legend Double Dagger 13.6 -0.6 37 30 9 16.1 97.72     LegendNANA
19:00 Legend Double Dagger 10.3 -0.5 47 LegendMM 4 16.1 97.77     LegendNANA
20:00 Legend Double Dagger 8.1 -0.3 55   0 16.1 97.84     LegendNANA
21:00 Legend Double Dagger 5.7 -0.2 66   0 16.1 97.89     LegendNANA
22:00 Legend Double Dagger 5.0 -1.1 65 34 11 16.1 97.95     LegendNANA
23:00 Legend Double Dagger 4.1 -0.5 72 34 5 16.1 98.00     LegendNANA

Notes on Data Quality.

Legend

  • E = Estimated
  • M = Missing
  • NA = Not Available
  • ‡ = Partner data that is not subject to review by the National Climate Archives
Date modified: